FW0606 Weather Reports


Display with metric or nautical units.
time (UTC)temp
F
wind
direction
speed
MPH
gust
MPH
rain 1hr
in
rain 24hr
in
rain mn
in
humidity
%
barometer
mb
20180421072219 59 96 1.0 6.0 0.00 0.00 0.00 64 1018.3
20180421070719 59 119 2.0 8.0 0.00 0.00 0.00 64 1018.3
20180421065220 59 154 1.0 7.0 0.00 0.00 0.00 64 1018.5
20180421063719 59 161 2.0 7.0 0.00 0.00 0.00 63 1018.5
20180421062217 59 126 3.0 10.0 0.00 0.00 0.00 63 1018.4
20180421060719 59 32 2.0 8.0 0.00 0.00 0.00 63 1018.4
20180421055214 59 149 3.0 9.0 0.00 0.00 0.00 63 1018.5
20180421053711 59 167 1.0 7.0 0.00 0.00 0.00 63 1018.4
20180421052212 60 146 1.0 9.0 0.00 0.00 0.00 61 1018.3
20180421050712 60 156 3.0 8.0 0.00 0.00 0.00 61 1018.4
20180421045209 60 162 3.0 8.0 0.00 0.00 0.00 60 1018.5
20180421043706 60 136 1.0 7.0 0.00 0.00 0.00 59 1018.5
20180421042204 61 124 2.0 8.0 0.00 0.00 0.00 58 1018.5
20180421040706 61 92 2.0 7.0 0.00 0.00 0.00 58 1018.4
20180421035204 61 157 2.0 6.0 0.00 0.00 0.00 56 1018.3
20180421033704 61 92 2.0 8.0 0.00 0.00 0.00 56 1018.2
20180421032203 62 176 2.0 9.0 0.00 0.00 0.00 55 1018.1
20180421030702 62 138 2.0 9.0 0.00 0.00 0.00 54 1018.3
20180421025206 62 157 4.0 10.0 0.00 0.00 0.00 53 1017.7
20180421023700 62 76 4.0 11.0 0.00 0.00 0.00 53 1017.8
20180421022201 63 121 1.0 7.0 0.00 0.00 0.00 52 1017.8
20180421020702 63 190 3.0 10.0 0.00 0.00 0.00 51 1017.4
20180421015158 64 142 3.0 10.0 0.00 0.00 0.00 49 1017.4
20180421013701 64 138 3.0 7.0 0.00 0.00 0.00 49 1017.5
20180421012159 64 238 2.0 8.0 0.00 0.00 0.00 48 1017.3
20180421010656 65 179 4.0 13.0 0.00 0.00 0.00 47 1017.2
20180421005158 65 124 3.0 8.0 0.00 0.00 0.00 45 1017.5
20180421003652 66 199 3.0 8.0 0.00 0.00 0.00 43 1017.5
20180421002154 67 138 4.0 9.0 0.00 0.00 0.00 43 1017.8
20180421000651 67 163 2.0 8.0 0.00 0.00 0.00 43 1018.0
20180420235154 68 142 2.0 8.0 0.00 0.00 0.00 43 1017.9
20180420233651 68 214 3.0 10.0 0.00 0.00 0.00 42 1017.9
20180420232151 69 170 2.0 10.0 0.00 0.00 0.00 41 1018.2
20180420230648 69 173 3.0 9.0 0.00 0.00 0.00 40 1018.5
20180420225152 69 155 3.0 8.0 0.00 0.00 0.00 40 1018.7
20180420223649 69 156 3.0 10.0 0.00 0.00 0.00 39 1018.4
20180420222147 69 50 3.0 12.0 0.00 0.00 0.00 39 1018.5
20180420220645 70 201 1.0 10.0 0.00 0.00 0.00 39 1019.0
20180420215141 69 132 2.0 8.0 0.00 0.00 0.00 40 1019.2
20180420213640 69 186 3.0 11.0 0.00 0.00 0.00 39 1019.3
20180420212140 69 294 3.0 10.0 0.00 0.00 0.00 39 1019.4
20180420210639 69 160 3.0 10.0 0.00 0.00 0.00 38 1019.5
20180420205138 68 120 4.0 11.0 0.00 0.00 0.00 38 1019.7
20180420203637 68 178 3.0 11.0 0.00 0.00 0.00 38 1020.3
20180420202142 68 238 2.0 10.0 0.00 0.00 0.00 41 1020.7
20180420200638 68 5 3.0 9.0 0.00 0.00 0.00 39 1021.1
20180420195138 67 115 2.0 10.0 0.00 0.00 0.00 39 1021.6
20180420193636 68 177 3.0 8.0 0.00 0.00 0.00 40 1021.9
20180420192132 66 225 5.0 12.0 0.00 0.00 0.00 39 1022.2
20180420190633 67 147 3.0 8.0 0.00 0.00 0.00 40 1022.4
20180420185133 66 236 3.0 10.0 0.00 0.00 0.00 40 1022.7
20180420183627 64 271 3.0 7.0 0.00 0.00 0.00 41 1023.0
20180420182127 66 94 2.0 9.0 0.00 0.00 0.00 40 1023.3
20180420180625 65 32 3.0 9.0 0.00 0.00 0.00 41 1023.8
20180420173619 64 200 2.0 6.0 0.00 0.00 0.00 41 1024.8
20180420172116 64 5 3.0 10.0 0.00 0.00 0.00 42 1024.9
20180420170618 63 332 2.0 8.0 0.00 0.00 0.00 42 1025.4
20180420165114 63 346 1.0 7.0 0.00 0.00 0.00 44 1025.9
20180420163611 61 5 2.0 7.0 0.00 0.00 0.00 45 1026.0
20180420162112 60 256 4.0 11.0 0.00 0.00 0.00 44 1026.1
20180420160710 61 300 2.0 10.0 0.00 0.00 0.00 46 1026.0
20180420155109 59 38 3.0 9.0 0.00 0.00 0.00 46 1026.3
20180420153607 58 169 3.0 11.0 0.00 0.00 0.00 48 1026.3
20180420152104 58 104 3.0 9.0 0.00 0.00 0.00 48 1026.4
20180420150603 57 127 4.0 10.0 0.00 0.00 0.00 49 1026.2
20180420145104 56 146 2.0 12.0 0.00 0.00 0.00 52 1026.3
20180420143600 56 93 4.0 13.0 0.00 0.00 0.00 53 1026.4
20180420142058 55 134 4.0 10.0 0.00 0.00 0.00 54 1026.4
20180420140558 54 123 4.0 10.0 0.00 0.00 0.00 54 1026.2
20180420135055 54 99 2.0 9.0 0.00 0.00 0.00 58 1025.9
20180420133554 53 132 4.0 9.0 0.00 0.00 0.00 59 1025.7
20180420132050 52 300 4.0 9.0 0.00 0.00 0.00 62 1025.9
20180420130549 51 184 3.0 8.0 0.00 0.00 0.00 66 1025.3
20180420125048 51 153 2.0 12.0 0.00 0.00 0.00 67 1025.4
20180420123547 51 321 1.0 10.0 0.00 0.00 0.00 70 1025.3
20180420122045 51 128 1.0 8.0 0.00 0.00 0.00 69 1025.2
20180420120546 51 55 1.0 8.0 0.00 0.00 0.00 69 1024.9
20180420115042 51 157 1.0 6.0 0.00 0.00 0.00 69 1024.9
20180420113542 51 213 1.0 8.0 0.00 0.00 0.00 70 1024.9
20180420112050 51 126 2.0 7.0 0.00 0.00 0.00 69 1025.0
20180420110541 52 138 1.0 9.0 0.00 0.00 0.00 68 1024.9
20180420105041 52 182 1.0 8.0 0.00 0.00 0.00 67 1024.6
20180420103539 52 96 1.0 7.0 0.00 0.00 0.00 67 1024.7
20180420102039 52 173 1.0 6.0 0.00 0.00 0.00 67 1024.7
20180420100539 51 15 0.0 3.0 0.00 0.00 0.00 72 1024.7
20180420095137 50 29 0.0 4.0 0.00 0.00 0.00 72 1024.5
20180420093538 50 49 0.0 2.0 0.00 0.00 0.00 72 1024.3
20180420092032 50 49 0.0 2.0 0.00 0.00 0.00 71 1024.7
20180420090530 50 21 0.0 5.0 0.00 0.00 0.00 70 1024.8
20180420085031 51 29 0.0 5.0 0.00 0.00 0.00 69 1024.3
20180420083529 51 21 0.0 4.0 0.00 0.00 0.00 68 1024.6
20180420082029 51 60 0.0 4.0 0.00 0.00 0.00 68 1024.6
20180420080529 51 65 0.0 3.0 0.00 0.00 0.00 67 1024.7
20180420075024 52 142 0.0 2.0 0.00 0.00 0.00 65 1024.7
20180420073522 52 44 1.0 4.0 0.00 0.00 0.00 65 1024.6